www.pogodaiklimat.ru

Погода и климат >> Архив погоды >> Буркина-Фасо >> Боромо


ПОГОДА в Боромо

  • Прогноз погоды в Боромо
  • Монитор погоды в Боромо

АРХИВ ПОГОДЫ в Боромо

Время (UTC), дата Ветер
(напр.,м/с)
 
Видим.   Явления Облачность Т
(С)
Тd
(С)
f
(%)
Тe
(С)
Тes
(С)
Комфортность P
(гПа)
Po
(гПа)
Тmin
(С)
Tmax
(С)
R
(мм)
R24
(мм)
S
(см)
18 16.07 штиль 0 15 км 9/1 600 м
[Cu Sc Ac As Ci sp]
+31.0 +23.2 63 +41 +42 опасность
перегрева
1010.1 979.8 +31.5
21 16.07 штиль 0 10 км зарница 9/1 1200 м
[Cb cap Ac As Ci sp]
+26.7 +23.9 85 +37 +37 очень
душно
1011.7 981.3
00 17.07 штиль 0 10 км зарница 9/1 1200 м
[Cb cap Ac As Ci sp]
+26.2 +24.5 90 +37 +37 очень
душно
1011.9 981.6
03 17.07 штиль 0 10 км в посл. час гроза 9/3 1200 м
[Cb cap Ac As Ci sp]
+23.9 +20.6 82 +30 +30 очень
душно
1011.9 981.6
06 17.07 штиль 0 10 км гроза, ливневой дождь 10/1 600 м
[Cb cap Ac As]
+23.1 +21.6 91 +31 +31 очень
душно
1013.0 982.6 +22.6 0.4
09 17.07 штиль 0 10 км гроза, ливневой дождь 10/3 600 м
[Cb cap Ac As]
+23.7 +22.7 94 +31 +34 очень
душно
1015.1 984.4
12 17.07 ЮЗ 3 10 км гроза без осадков 9/4 600 м
[Cb cap Ac As Ci sp]
+25.4 +24.1 93 +35 +41 очень
душно
1014.0 983.5 16
15 17.07 штиль 0 15 км 9/5 600 м
[Cu Sc Ac trans Ci sp]
+28.2 +22.7 72 +37 +42 очень
душно
1011.7 981.3
18 17.07 штиль 0 10 км 8/1 600 м
[Sc Ac trans Ci sp]
+29.2 +22.9 69 +39 +39 очень
душно
1010.7 980.3 +29.5
21 17.07 штиль 0 10 км 9/0
[Ac trans Ci sp]
+26.2 +23.8 87 +36 +36 очень
душно
1011.5 981.0
00 18.07 штиль 0 10 км 9/0
[Ci sp]
+24.9 +23.2 90 +33 +33 очень
душно
1012.3 981.8
03 18.07 штиль 0 10 км 9/0
[Cs]
+24.2 +23.2 94 +32 +32 очень
душно
1011.6 981.2
06 18.07 штиль 0 10 км 9/0
[Ac trans Ci sp]
+23.7 +22.7 94 +31 +31 очень
душно
1011.3 980.9 +23.1 16
09 18.07 ЮЗ 2 15 км 9/1 600 м
[Sc Ac As Cs]
+26.6 +23.6 84 +36 +42 очень
душно
1013.0 982.6
12 18.07 штиль 0 15 км 9/3 600 м
[Sc Ac As Ci sp]
+29.3 +23.3 70 +40 +51 опасность
солнечного
удара
1013.4 983.0
18 18.07 штиль 0 15 км 9/0
[Ac As Ci sp]
+29.5 +24.6 75 +42 +42 опасность
перегрева
1009.0 978.6 +30.7
21 18.07 штиль 0 10 км 9/0
[Ac As Ci sp]
+28.0 +25.1 84 +40 +40 очень
душно
1011.2 980.9
03 19.07 Ю 1 10 км 9/0
[Ac As Ci sp]
+25.7 +23.3 87 +35 +35 очень
душно
1010.9 980.7
06 19.07 Ю 2 10 км 9/1 600 м
[Cb cap Ac As Ci sp]
+24.6 +22.3 87 +32 +32 очень
душно
1011.0 980.7 +24.1
09 19.07 ЮЗ 2 10 км гроза, ливневой дождь 9/1 1200 м
[Cb cap Ac As]
+25.1 +24.1 94 +35 +38 очень
душно
1013.9 983.4
12 19.07 З 2 10 км гроза, ливневой дождь 10/1 600 м
[Cb cap Ac As]
+25.8 +24.5 93 +36 +42 очень
душно
1013.3 982.8 5
15 19.07 штиль 0 10 км в посл. час дождь {гроза} 10/1 600 м
[Sc Ac As]
+25.3 +23.4 89 +34 +39 очень
душно
1011.7 981.2
18 19.07 С 1 10 км {гроза, дождь} 9/1 600 м
[Sc Ac As]
+25.6 +22.9 85 +34 +34 очень
душно
1009.9 979.4 +26.0 6
21 19.07 штиль 0 10 км 9/0
[Ac As]
+25.0 +23.7 93 +34 +34 очень
душно
1012.1 981.6
00 20.07 штиль 0 10 км 9/0
[Ac As]
+24.7 +23.7 94 +34 +34 очень
душно
1012.4 981.8
03 20.07 штиль 0 10 км 9/0
[Ac As]
+24.4 +23.8 96 +33 +33 очень
душно
1011.6 981.1
06 20.07 штиль 0 10 км 9/0
[Ac As Ci sp]
+24.0 +23.3 96 +32 +32 очень
душно
1012.2 981.6 +23.6 6
09 20.07 ЮЗ 1 10 км 9/1 600 м
[Sc Ac trans Ci sp]
+26.8 +22.8 79 +36 +42 очень
душно
1013.6 983.0
12 20.07 ЮЗ 2 10 км 9/5 600 м
[Sc Ac trans Ci sp]
+30.0 +22.1 63 +39 +45 очень
душно
1012.4 982.0
15 20.07 штиль 0 10 км слаб. дождь 9/1 600 м
[Cu Sc Ac As Ci sp]
+30.2 +23.5 67 +41 +49 опасность
перегрева
1010.7 980.5
18 20.07 штиль 0 10 км {дождь} 9/1 600 м
[Cb cap Ac As Ci sp]
+29.9 +22.3 64 +39 +39 очень
душно
1011.0 980.7 +31.0 0.0
21 20.07 СЗ 3 10 км слаб. ливневой дождь, в посл. час гроза 10/1 1200 м
[Cb cap Ac As]
+23.2 +22.0 93 +32 +32 очень
душно
1011.0 980.5
00 21.07 штиль 0 10 км {гроза, дождь} 9/0
[Ac As Ci sp]
+23.4 +22.2 93 +32 +32 очень
душно
1012.3 981.9 22
03 21.07 штиль 0 10 км 9/1 400 м
[St Ac As Ci sp]
+23.4 +22.7 96 +33 +33 очень
душно
1010.4 980.1
06 21.07 штиль 0 10 км в посл. час дождь 10/1 400 м
[St Ac As]
+23.6 +22.9 96 +31 +31 очень
душно
1012.2 981.7 +22.1 23
09 21.07 Ю 1 10 км {дождь} 10/4 600 м
[Sc Ac As]
+24.2 +23.0 93 +32 +34 очень
душно
1014.2 983.4
12 21.07 СВ 2 15 км {дождь} 10/10 600 м
[]
+27.4 +22.5 75 +36 +36 очень
душно
1013.7 983.2 7
15 21.07 С 2 15 км 9/5 600 м
[Cu Sc Ac trans Ci sp]
+29.6 +22.6 66 +39 +43 очень
душно
1009.6 979.2
18 21.07 штиль 0 10 км 9/3 600 м
[Cu Sc Ac trans Ci sp]
+29.2 +22.9 69 +39 +39 очень
душно
1008.9 978.6 +29.8 7
21 21.07 штиль 0 10 км 9/0
[Ac trans Ci sp]
+26.6 +24.0 86 +37 +37 очень
душно
1009.8 979.3
00 22.07 штиль 0 10 км в посл. час дождь 9/4 600 м
[Sc Ac As Ci sp]
+26.4 +24.4 89 +37 +37 очень
душно
1011.0 980.7 0.0
03 22.07 штиль 0 10 км {гроза, дождь} 9/9 600 м
[]
+23.8 +23.1 96 +32 +32 очень
душно
1010.6 980.2
06 22.07 штиль 0 10 км {гроза, дождь} 9/1 600 м
[Sc Ac trans Ci sp]
+23.7 +23.1 96 +31 +31 очень
душно
1010.8 980.4 +23.2 38
09 22.07 штиль 0 15 км 9/4 600 м
[Sc Ac As Ci sp]
+26.4 +23.7 85 +36 +41 очень
душно
1013.5 983.0
12 22.07 ЮВ 2 15 км 9/4 600 м
[Cu Sc Ac trans Ci sp]
+30.2 +23.2 66 +40 +48 очень
душно
1012.5 982.2
15 22.07 Ю 2 15 км 9/1 600 м
[Cu Sc Cs]
+31.4 +23.0 61 +42 +51 опасность
перегрева
1010.5 980.2
18 22.07 штиль 0 15 км 9/1 600 м
[Sc Ac trans Ci sp]
+30.0 +23.6 69 +41 +41 опасность
перегрева
1009.6 979.3 +31.7
21 22.07 штиль 0 10 км 9/0
[Ci sp]
+27.0 +24.2 85 +38 +38 очень
душно
1010.4 980.1
00 23.07 штиль 0 10 км 9/0
[Ac trans Ci sp]
+25.6 +23.4 88 +35 +35 очень
душно
1010.6 980.4
03 23.07 штиль 0 10 км 9/0
[Ac As Ci sp]
+25.4 +23.4 89 +34 +34 очень
душно
1010.1 980.0
06 23.07 штиль 0 10 км в посл. час дождь 9/0
[Ac As Ci sp]
+25.0 +23.3 90 +33 +33 очень
душно
1011.4 981.1 +24.6 0.0
09 23.07 ЮЗ 2 10 км 9/1 600 м
[Sc Ac As Ci sp]
+26.7 +23.0 80 +36 +41 очень
душно
1012.6 982.3
12 23.07 ЮЗ 2 10 км 9/4 600 м
[Cu Sc Ac trans Ci sp]
+29.8 +23.4 69 +40 +48 очень
душно
1012.1 981.7

 

Местоположение метеостанции Боромо (Буркина-Фасо): широта 11.75 долгота -2.93 высота над уровнем моря 271 м.

В архиве по умолчанию представлена погода в Боромо за последнюю неделю. Архивные данные за месяц целиком и за предыдущие месяцы, начиная с января 2011 года, Вы можете получить, выбрав интересующий диапазон дат из раскрывающегося списка и нажав кнопку "Ввод!".


*Определитесь, кто Вы:
робот инопланетянин человек

Внимание! Время в таблицах - всемирное. Для получения местного времени необходимо прибавить поправку, которая равна 0 ч.

Смотрите также архив погоды в соседних городах и на ближайших метеорологических станциях:

Погода в Дедугу (Буркина-Фасо) (100 км)
Погода в Гауа (Буркина-Фасо) (160 км)
Погода в Бобо-Диуласо (Буркина-Фасо) (165 км)
Погода в Уагадугу (Буркина-Фасо) (167 км)
Погода в Ва (Гана) (195 км)
Погода в По (Буркина-Фасо) (205 км)
Погода в Вахигуе (Буркина-Фасо) (210 км)
Погода в Навронго (Гана) (221 км)
Погода в Сане (Мали) (271 км)
Погода в Кутиале (Мали) (285 км)

Пояснения к столбцам:

Ветер - указаны скорость ветра в м/с - средняя за 10 мин, порывы в срок и между сроками (в фигурных скобках) и направление, откуда дует ветер: С - северный, СВ - северо-восточный, В - восточный, ЮВ - юго-восточный, Ю - южный, ЮЗ - юго-западный, З - западный, СЗ - северо-западный.
Видимость - горизонтальная дальность видимости в метрах или километрах. При видимости от 1 до 10 км при отсутствии осадков обычно наблюдается дымка, при ухудшении видимости до 1 км и менее - туман. В сухую погоду видимость может ухудшаться дымом, пылью или мглою.
Явления - указаны атмосферные явления, наблюдавшиеся в срок или в последний час перед сроком; фигурными скобками обозначены явления, наблюдавшиеся между сроками (за 1-3 часа до срока); квадратными скобками обозначены град или гололедные отложения с указанием их диаметра в мм.
Облачность - указаны через наклонную черту общая и нижняя облачность в баллах и высота нижней границы облаков в метрах; квадратными скобками обозначены формы облаков: Ci - перистые, Cs - перисто-слоистые, Cc - перисто-кучевые, Ac - высококучевые, As - высокослоистые, Sc - слоисто-кучевые, Ns - слоисто-дождевые, Cu - кучевые, Cb - кучево-дождевые. Подробнее классификацию облаков см. в Атласе облаков (PDF).
T - Температура воздуха - температура, измеренная на высоте 2 м над землей.
Td - Температура точки росы - температура, при понижении до которой содержащийся в воздухе водяной пар достигнет насыщения.
f - Относительная влажность воздуха - влажноcть воздуха, измеренная на высоте 2 м над землей.
Te - Эффективная температура - температура, которую ощущает одетый по сезону человек в тени. Характеристика душности погоды. При расчете учитывается влияние влажности воздуха и скорости ветра на теплоощущения человека.
Tes - Эффективная температура на солнце - температура, которую ощущает человек, с поправкой на солнечный нагрев. Характеристика знойности погоды. Зависит от высоты солнца над горизонтом, облачности и скорости ветра. Ночью, в пасмурную погоду, а также при ветре 12 м/с и более поправка равна нулю.
P - Атмосферное давление - приведенное к уровню моря атмосферное давление.
Po - Атмосферное давление - измеренное на уровне метеостанции атмосферное давление.
Tmin - Минимальная температура - минимум температуры воздуха на высоте 2 м над землей.
Tmax - Максимальная температура - максимум температуры воздуха на высоте 2 м над землей.
R - Количество осадков - Количество выпавших осадков за период времени, мм. При наведении курсора мыши на число - период времени, за который выпало указанное количество осадков.
R24 - Количество осадков - Количество выпавших осадков за 24 часа, мм.
S - Снежный покров - Высота снежного покрова, см. При наведении курсора мыши на число - состояние снежного покрова и степень покрытия местности в баллах.